VK2ADG-1 Weather Reports


time (UTC)temp
C
wind
direction
speed
KPH
gust
KPH
rain 1hr
cm
rain 24hr
cm
rain mn
cm
humidity
%
barometer
mb
20260510142029 7 360 4.8 6.4 0.00 0.00 0.00 99 1031.3
20260510141027 7 2 4.8 6.4 0.00 0.00 0.00 99 1031.2
20260510140024 7 7 4.8 6.4 0.00 0.00 0.00 99 1031.3
20260510135022 7 347 1.6 4.8 0.00 0.00 0.00 99 1031.3
20260510134019 7 341 1.6 4.8 0.00 0.00 0.00 99 1031.2
20260510133017 8 346 3.2 4.8 0.00 0.00 0.00 99 1031.2
20260510132035 8 6 3.2 4.8 0.00 0.00 0.00 98 1031.2
20260510131032 8 2 3.2 4.8 0.00 0.00 0.00 98 1031.4
20260510130029 8 13 1.6 4.8 0.00 0.00 0.00 98 1031.4
20260510125028 8 354 1.6 4.8 0.00 0.00 0.00 98 1031.6
20260510124025 8 351 3.2 4.8 0.00 0.00 0.00 98 1031.7
20260510123022 8 354 3.2 4.8 0.00 0.00 0.00 97 1031.7
20260510122021 8 348 3.2 6.4 0.00 0.00 0.00 97 1031.9
20260510121018 8 2 3.2 4.8 0.00 0.00 0.00 97 1031.9
20260510120036 9 3 4.8 6.4 0.00 0.00 0.00 96 1031.9
20260510115034 9 359 4.8 4.8 0.00 0.00 0.00 96 1031.9
20260510114032 9 3 4.8 8.0 0.00 0.00 0.00 95 1031.8
20260510113029 10 1 4.8 6.4 0.00 0.00 0.00 95 1031.9
20260510112026 10 3 4.8 6.4 0.00 0.00 0.00 94 1031.7
20260510111024 10 9 4.8 6.4 0.00 0.00 0.00 94 1031.7
20260510110043 10 15 4.8 6.4 0.00 0.00 0.00 95 1031.6
20260510105019 10 5 4.8 6.4 0.00 0.00 0.00 94 1031.6
20260510104017 10 4 4.8 4.8 0.00 0.00 0.00 94 1031.5
20260510103116 10 357 4.8 6.4 0.00 0.00 0.00 93 1031.4
20260510102033 11 352 4.8 6.4 0.00 0.00 0.00 93 1031.3
20260510101030 11 354 4.8 6.4 0.00 0.00 0.00 93 1031.2
20260510100027 11 349 3.2 4.8 0.00 0.00 0.00 92 1031.2
20260510095026 11 345 1.6 4.8 0.00 0.00 0.00 92 1031.1
20260510094022 11 355 1.6 3.2 0.00 0.00 0.00 91 1031.0
20260510093021 11 56 4.8 9.7 0.00 0.00 0.00 90 1030.9
20260510092018 11 1 3.2 6.4 0.00 0.00 0.00 90 1030.9
20260510091036 12 358 3.2 4.8 0.00 0.00 0.00 89 1030.8
20260510090034 12 18 1.6 8.0 0.00 0.00 0.00 87 1030.5
20260510085032 12 248 1.6 4.8 0.00 0.00 0.00 86 1030.3
20260510084029 12 339 3.2 4.8 0.00 0.00 0.00 84 1030.1
20260510083046 12 344 3.2 4.8 0.00 0.00 0.00 83 1029.8
20260510082023 13 352 4.8 6.4 0.00 0.00 0.00 83 1029.7
20260510081022 13 344 4.8 6.4 0.00 0.00 0.00 81 1029.3
20260510080018 13 344 4.8 6.4 0.00 0.00 0.00 80 1029.2
20260510075016 14 14 3.2 9.7 0.00 0.00 0.00 79 1029.2
20260510074035 14 31 4.8 8.0 0.00 0.00 0.00 78 1028.9
20260510073032 14 40 4.8 8.0 0.00 0.00 0.00 76 1028.8
20260510072031 15 57 4.8 8.0 0.00 0.00 0.00 75 1028.8
20260510071108 15 50 3.2 8.0 0.00 0.00 0.00 72 1028.5
20260510070025 15 32 3.2 6.4 0.00 0.00 0.00 70 1028.4
20260510065043 16 69 4.8 9.7 0.00 0.00 0.00 69 1028.2
20260510064021 16 72 3.2 6.4 0.00 0.00 0.00 66 1028.0
20260510063018 16 95 4.8 9.7 0.00 0.00 0.00 65 1028.0
20260510062057 16 93 4.8 9.7 0.00 0.00 0.00 63 1027.9
20260510061033 17 97 4.8 11.3 0.00 0.00 0.00 62 1027.7
20260510060133 17 102 4.8 9.7 0.00 0.00 0.00 61 1027.7
20260510055049 17 102 6.4 9.7 0.00 0.00 0.00 60 1027.5
20260510054026 17 128 4.8 8.0 0.00 0.00 0.00 60 1027.4
20260510053024 17 136 6.4 12.9 0.00 0.00 0.00 60 1027.3
20260510052021 17 121 8.0 11.3 0.00 0.00 0.00 60 1027.4
20260510051020 17 125 4.8 9.7 0.00 0.00 0.00 59 1027.3
20260510050016 17 111 6.4 11.3 0.00 0.00 0.00 60 1027.2
20260510045035 17 124 6.4 11.3 0.00 0.00 0.00 59 1027.3
20260510044053 17 136 6.4 9.7 0.00 0.00 0.00 59 1027.1
20260510043051 18 139 8.0 11.3 0.00 0.00 0.00 59 1027.0
20260510042029 17 142 4.8 9.7 0.00 0.00 0.00 60 1027.1
20260510041025 18 150 4.8 9.7 0.00 0.00 0.00 58 1027.0
20260510040042 18 132 6.4 12.9 0.00 0.00 0.00 58 1027.1
20260510035042 18 122 3.2 8.0 0.00 0.00 0.00 57 1026.9
20260510034039 17 146 6.4 11.3 0.00 0.00 0.00 57 1027.1
20260510033036 17 162 6.4 11.3 0.00 0.00 0.00 57 1027.2
20260510032034 17 132 4.8 11.3 0.00 0.00 0.00 57 1027.3
20260510031031 17 121 3.2 6.4 0.00 0.00 0.00 57 1027.4
20260510030029 17 151 6.4 12.9 0.00 0.00 0.00 58 1027.4
20260510025027 17 136 3.2 6.4 0.00 0.00 0.00 60 1027.5
20260510024024 17 59 6.4 14.5 0.00 0.00 0.00 59 1027.7
20260510023022 17 57 3.2 9.7 0.00 0.00 0.00 59 1027.9
20260510022020 17 111 1.6 8.0 0.00 0.00 0.00 60 1028.0
20260510021016 17 26 3.2 9.7 0.00 0.00 0.00 59 1028.2
20260510020035 17 12 3.2 6.4 0.00 0.00 0.00 60 1028.3
20260510015032 16 31 4.8 12.9 0.00 0.00 0.00 61 1028.5
20260510014030 17 36 4.8 11.3 0.00 0.00 0.00 60 1028.6
20260510013028 16 37 3.2 9.7 0.00 0.00 0.00 62 1028.6
20260510012025 15 192 3.2 6.4 0.00 0.00 0.00 64 1028.7
20260510011043 15 185 3.2 6.4 0.00 0.00 0.00 64 1028.7
20260510010019 15 269 1.6 3.2 0.00 0.00 0.00 65 1028.9
20260510005018 15 286 1.6 6.4 0.00 0.00 0.00 67 1029.0
20260510004040 14 340 3.2 4.8 0.00 0.00 0.00 68 1029.1
20260510003034 13 225 1.6 3.2 0.00 0.00 0.00 73 1029.0
20260510002031 12 225 1.6 4.8 0.00 0.00 0.00 75 1029.0
20260510001029 12 12 1.6 3.2 0.00 0.00 0.00 75 1028.9
20260510000026 11 3 1.6 4.8 0.00 0.00 0.00 76 1029.0
20260509235024 11 325 1.6 6.4 0.00 0.00 0.00 78 1028.8
20260509234021 10 327 3.2 6.4 0.00 0.00 0.00 81 1028.9
20260509233040 8 351 3.2 6.4 0.00 0.00 0.00 83 1028.9
20260509232017 8 350 1.6 4.8 0.00 0.00 0.00 84 1028.9
20260509231035 7 3 1.6 4.8 0.00 0.00 0.00 86 1028.8
20260509230033 6 352 3.2 4.8 0.00 0.00 0.00 87 1028.9
20260509225030 5 1 1.6 4.8 0.00 0.00 0.00 88 1028.9
20260509224048 4 17 3.2 4.8 0.00 0.00 0.00 89 1028.8
20260509223046 4 25 3.2 6.4 0.00 0.00 0.00 88 1028.8
20260509222022 3 37 3.2 6.4 0.00 0.00 0.00 87 1028.6
20260509221020 3 29 4.8 6.4 0.00 0.00 0.00 88 1028.6
20260509220017 2 44 3.2 6.4 0.00 0.00 0.00 89 1028.3
20260509215037 2 42 4.8 6.4 0.00 0.00 0.00 90 1028.3
20260509214055 2 32 4.8 6.4 0.00 0.00 0.00 92 1028.0
20260509213031 1 33 4.8 8.0 0.00 0.00 0.00 95 1027.8
20260509212110 0 45 4.8 6.4 0.00 0.00 0.00 96 1027.7
20260509211026 0 29 6.4 8.0 0.00 0.00 0.00 97 1027.4
20260509210024 0 33 6.4 8.0 0.00 0.00 0.00 97 1027.2
20260509205022 0 23 6.4 8.0 0.00 0.00 0.00 97 1027.1
20260509203017 0 25 6.4 8.0 0.00 0.00 0.00 97 1026.8
20260509202056 0 28 6.4 8.0 0.00 0.00 0.00 97 1026.7
20260509201032 0 33 6.4 8.0 0.00 0.00 0.00 97 1026.6
20260509200030 0 35 4.8 6.4 0.00 0.00 0.00 97 1026.5
20260509195028 0 37 4.8 4.8 0.00 0.00 0.00 97 1026.3
20260509194024 0 40 4.8 6.4 0.00 0.00 0.00 97 1026.1
20260509193023 1 34 6.4 6.4 0.00 0.00 0.00 97 1026.0
20260509192020 1 35 3.2 6.4 0.00 0.00 0.00 96 1026.0
20260509191018 1 40 4.8 6.4 0.00 0.00 0.00 96 1025.8
20260509190036 0 34 4.8 8.0 0.00 0.00 0.00 96 1025.7
20260509185033 1 31 4.8 6.4 0.00 0.00 0.00 96 1025.5
20260509184113 2 28 4.8 6.4 0.00 0.00 0.00 96 1025.5
20260509183030 2 23 4.8 6.4 0.00 0.00 0.00 96 1025.4
20260509182027 2 28 4.8 6.4 0.00 0.00 0.00 96 1025.3
20260509181045 2 23 6.4 6.4 0.00 0.00 0.00 96 1025.2
20260509180022 2 27 6.4 9.7 0.00 0.00 0.00 96 1025.2
20260509175019 2 25 6.4 8.0 0.00 0.00 0.00 96 1025.2
20260509174017 2 24 6.4 8.0 0.00 0.00 0.00 96 1025.1
20260509173034 2 20 6.4 8.0 0.00 0.00 0.00 96 1025.1
20260509172033 2 25 4.8 8.0 0.00 0.00 0.00 96 1025.1
20260509171030 2 21 6.4 8.0 0.00 0.00 0.00 96 1025.1
20260509170027 2 22 4.8 6.4 0.00 0.00 0.00 96 1025.1
20260509165026 3 13 4.8 6.4 0.00 0.00 0.00 96 1025.1
20260509164023 2 22 6.4 8.0 0.00 0.00 0.00 96 1025.3
20260509163020 2 21 6.4 8.0 0.00 0.00 0.00 96 1025.3
20260509162017 3 19 6.4 8.0 0.00 0.00 0.00 96 1025.1
20260509161036 3 20 6.4 6.4 0.00 0.00 0.00 96 1025.3
20260509160034 3 15 4.8 6.4 0.00 0.00 0.00 96 1025.5
20260509155031 2 22 4.8 6.4 0.00 0.00 0.00 95 1025.4
20260509154029 3 24 6.4 6.4 0.00 0.00 0.00 95 1025.4
20260509153026 3 28 4.8 6.4 0.00 0.00 0.00 95 1025.3
20260509152024 3 24 4.8 6.4 0.00 0.00 0.00 95 1025.4
20260509151043 3 25 4.8 6.4 0.00 0.00 0.00 95 1025.4
20260509150019 3 15 4.8 6.4 0.00 0.00 0.00 95 1025.4
20260509145018 4 7 6.4 8.0 0.00 0.00 0.00 95 1025.5
20260509144035 4 21 4.8 6.4 0.00 0.00 0.00 95 1025.6
20260509143134 4 17 6.4 8.0 0.00 0.00 0.00 95 1025.6